Year,Month,Day,Hour,Minute,Value (Times are PST for temperature in C)
2015,05,26,00,01,13.30
2015,05,26,00,02,13.30
2015,05,26,00,03,13.30
2015,05,26,00,04,13.30
2015,05,26,00,05,13.30
2015,05,26,00,06,13.30
2015,05,26,00,07,13.30
2015,05,26,00,10,13.30
2015,05,26,00,11,13.30
2015,05,26,00,12,13.30
2015,05,26,00,13,13.30
2015,05,26,00,14,13.30
2015,05,26,00,15,13.30
2015,05,26,00,16,13.30
2015,05,26,00,17,13.30
2015,05,26,00,18,13.30
2015,05,26,00,19,13.30
2015,05,26,00,20,13.30
2015,05,26,00,21,13.30
2015,05,26,00,22,13.30
2015,05,26,00,23,13.30
2015,05,26,00,24,13.30
2015,05,26,00,25,13.30
2015,05,26,00,26,13.30
2015,05,26,00,29,13.20
2015,05,26,00,30,13.20
2015,05,26,00,31,13.20
2015,05,26,00,32,13.20
2015,05,26,00,33,13.20
2015,05,26,00,34,13.20
2015,05,26,00,35,13.20
2015,05,26,00,36,13.20
2015,05,26,00,37,13.20
2015,05,26,00,38,13.20
2015,05,26,00,39,13.20
2015,05,26,00,40,13.10
2015,05,26,00,41,13.10
2015,05,26,00,42,13.10
2015,05,26,00,43,13.10
2015,05,26,00,44,13.10
2015,05,26,00,45,13.10
2015,05,26,00,46,13.10
2015,05,26,00,47,13.10
2015,05,26,00,48,13.10
2015,05,26,00,49,13.10
2015,05,26,00,50,13.00
2015,05,26,00,51,13.00
2015,05,26,00,52,13.00
2015,05,26,00,53,13.00
2015,05,26,00,58,12.90
2015,05,26,01,00,12.90
2015,05,26,01,01,12.90
2015,05,26,01,03,12.90
2015,05,26,01,04,12.90
2015,05,26,01,05,12.90
2015,05,26,01,06,12.90
2015,05,26,01,07,12.90
2015,05,26,01,08,12.90
2015,05,26,01,09,12.90
2015,05,26,01,10,12.90
2015,05,26,01,11,12.90
2015,05,26,01,12,12.90
2015,05,26,01,13,12.90
2015,05,26,01,14,12.90
2015,05,26,01,15,12.90
2015,05,26,01,16,12.90
2015,05,26,01,18,12.90
2015,05,26,01,19,12.90
2015,05,26,01,20,12.90
2015,05,26,01,23,12.90
2015,05,26,01,24,12.90
2015,05,26,01,25,12.90
2015,05,26,01,26,12.90
2015,05,26,01,27,12.90
2015,05,26,01,28,12.90
2015,05,26,01,29,12.90
2015,05,26,01,30,12.90
2015,05,26,01,32,12.90
2015,05,26,01,34,12.80
2015,05,26,01,35,12.90
2015,05,26,01,37,12.80
2015,05,26,01,38,12.80
2015,05,26,01,39,12.80
2015,05,26,01,40,12.80
2015,05,26,01,43,12.80
2015,05,26,01,44,12.80
2015,05,26,01,45,12.80
2015,05,26,01,46,12.80
2015,05,26,01,47,12.80
2015,05,26,01,48,12.80
2015,05,26,01,49,12.80
2015,05,26,01,52,12.70
2015,05,26,01,53,12.70
2015,05,26,01,54,12.70
2015,05,26,01,55,12.70
2015,05,26,01,56,12.70
2015,05,26,01,57,12.70
2015,05,26,01,58,12.70
2015,05,26,01,59,12.70
2015,05,26,02,00,12.70
2015,05,26,02,01,12.70
2015,05,26,02,02,12.70
2015,05,26,02,03,12.70
2015,05,26,02,04,12.70
2015,05,26,02,05,12.70
2015,05,26,02,06,12.60
2015,05,26,02,07,12.70
2015,05,26,02,08,12.60
2015,05,26,02,09,12.60
2015,05,26,02,10,12.60
2015,05,26,02,11,12.60
2015,05,26,02,12,12.60
2015,05,26,02,13,12.60
2015,05,26,02,14,12.60
2015,05,26,02,15,12.60
2015,05,26,02,18,12.60
2015,05,26,02,20,12.60
2015,05,26,02,22,12.60
2015,05,26,02,23,12.60
2015,05,26,02,24,12.60
2015,05,26,02,25,12.60
2015,05,26,02,26,12.60
2015,05,26,02,29,12.60
2015,05,26,02,30,12.60
2015,05,26,02,31,12.60
2015,05,26,02,33,12.60
2015,05,26,02,34,12.60
2015,05,26,02,35,12.60
2015,05,26,02,36,12.60
2015,05,26,02,37,12.60
2015,05,26,02,38,12.60
2015,05,26,02,39,12.60
2015,05,26,02,40,12.60
2015,05,26,02,42,12.60
2015,05,26,02,43,12.60
2015,05,26,02,44,12.60
2015,05,26,02,47,12.60
2015,05,26,02,50,12.60
2015,05,26,02,51,12.60
2015,05,26,02,53,12.60
2015,05,26,02,55,12.50
2015,05,26,02,56,12.50
2015,05,26,02,57,12.50
2015,05,26,02,58,12.50
2015,05,26,02,59,12.50
2015,05,26,03,00,12.50
2015,05,26,03,01,12.50
2015,05,26,03,02,12.40
2015,05,26,03,03,12.50
2015,05,26,03,04,12.50
2015,05,26,03,05,12.50
2015,05,26,03,06,12.40
2015,05,26,03,07,12.50
2015,05,26,03,08,12.40
2015,05,26,03,09,12.50
2015,05,26,03,10,12.50
2015,05,26,03,11,12.50
2015,05,26,03,12,12.50
2015,05,26,03,13,12.50
2015,05,26,03,14,12.60
2015,05,26,03,16,12.60
2015,05,26,03,17,12.60
2015,05,26,03,19,12.60
2015,05,26,03,20,12.60
2015,05,26,03,21,12.60
2015,05,26,03,22,12.60
2015,05,26,03,23,12.60
2015,05,26,03,24,12.60
2015,05,26,03,25,12.60
2015,05,26,03,26,12.60
2015,05,26,03,27,12.60
2015,05,26,03,28,12.70
2015,05,26,03,29,12.70
2015,05,26,03,30,12.70
2015,05,26,03,31,12.70
2015,05,26,03,32,12.70
2015,05,26,03,33,12.70
2015,05,26,03,34,12.70
2015,05,26,03,35,12.70
2015,05,26,03,38,12.80
2015,05,26,03,39,12.80
2015,05,26,03,40,12.80
2015,05,26,03,41,12.80
2015,05,26,03,44,12.80
2015,05,26,03,45,12.80
2015,05,26,03,46,12.80
2015,05,26,03,47,12.80
2015,05,26,03,48,12.80
2015,05,26,03,49,12.80
2015,05,26,03,50,12.80
2015,05,26,03,51,12.80
2015,05,26,03,52,12.80
2015,05,26,03,53,12.80
2015,05,26,03,54,12.80
2015,05,26,03,57,12.90
2015,05,26,03,59,12.90
2015,05,26,04,00,12.90
2015,05,26,04,01,12.90
2015,05,26,04,02,12.90
2015,05,26,04,05,12.90
2015,05,26,04,14,13.10
2015,05,26,04,17,13.10
2015,05,26,04,18,13.10
2015,05,26,04,19,13.10
2015,05,26,04,20,13.10
2015,05,26,04,21,13.10
2015,05,26,04,23,13.20
2015,05,26,04,24,13.20
2015,05,26,04,25,13.20
2015,05,26,04,26,13.20
2015,05,26,04,29,13.20
2015,05,26,04,30,13.20
2015,05,26,04,31,13.20
2015,05,26,04,34,13.20
2015,05,26,04,35,13.20
2015,05,26,04,36,13.20
2015,05,26,04,37,13.20
2015,05,26,04,38,13.20
2015,05,26,04,39,13.20
2015,05,26,04,42,13.20
2015,05,26,04,43,13.20
2015,05,26,04,44,13.20
2015,05,26,04,45,13.20
2015,05,26,04,48,13.20
2015,05,26,04,49,13.20
2015,05,26,04,50,13.20
2015,05,26,04,52,13.20
2015,05,26,04,53,13.20
2015,05,26,04,54,13.20
2015,05,26,04,55,13.20
2015,05,26,04,56,13.20
2015,05,26,04,57,13.20
2015,05,26,04,58,13.20
2015,05,26,04,59,13.20
2015,05,26,05,00,13.20
2015,05,26,05,01,13.20
2015,05,26,05,02,13.20
2015,05,26,05,03,13.20
2015,05,26,05,04,13.20
2015,05,26,05,05,13.20
2015,05,26,05,06,13.20
2015,05,26,05,09,13.20
2015,05,26,05,10,13.20
2015,05,26,05,11,13.20
2015,05,26,05,13,13.20
2015,05,26,05,14,13.20
2015,05,26,05,15,13.20
2015,05,26,05,16,13.20
2015,05,26,05,17,13.20
2015,05,26,05,18,13.20
2015,05,26,05,19,13.20
2015,05,26,05,20,13.20
2015,05,26,05,21,13.20
2015,05,26,05,23,13.20
2015,05,26,05,24,13.20
2015,05,26,05,25,13.20
2015,05,26,05,28,13.20
2015,05,26,05,29,13.20
2015,05,26,05,30,13.20
2015,05,26,05,31,13.20
2015,05,26,05,32,13.20
2015,05,26,05,33,13.20
2015,05,26,05,36,13.20
2015,05,26,05,37,13.20
2015,05,26,05,38,13.20
2015,05,26,05,39,13.20
2015,05,26,05,41,13.20
2015,05,26,05,42,13.20
2015,05,26,05,43,13.20
2015,05,26,05,44,13.20
2015,05,26,05,45,13.20
2015,05,26,05,46,13.20
2015,05,26,05,47,13.30
2015,05,26,05,48,13.30
2015,05,26,05,49,13.30
2015,05,26,05,50,13.30
2015,05,26,05,51,13.30
2015,05,26,05,52,13.30
2015,05,26,05,54,13.30
2015,05,26,05,55,13.30
2015,05,26,05,56,13.30
2015,05,26,05,57,13.30
2015,05,26,06,00,13.30
2015,05,26,06,01,13.30
2015,05,26,06,04,13.30
2015,05,26,06,06,13.30
2015,05,26,06,07,13.30
2015,05,26,06,08,13.40
2015,05,26,06,09,13.40
2015,05,26,06,10,13.40
2015,05,26,06,13,13.40
2015,05,26,06,14,13.40
2015,05,26,06,15,13.40
2015,05,26,06,16,13.40
2015,05,26,06,17,13.40
2015,05,26,06,18,13.40
2015,05,26,06,19,13.40
2015,05,26,06,20,13.40
2015,05,26,06,21,13.40
2015,05,26,06,22,13.40
2015,05,26,06,23,13.40
2015,05,26,06,24,13.40
2015,05,26,06,26,13.40
2015,05,26,06,27,13.50
2015,05,26,06,28,13.50
2015,05,26,06,31,13.50
2015,05,26,06,32,13.50
2015,05,26,06,33,13.50
2015,05,26,06,34,13.50
2015,05,26,06,35,13.50
2015,05,26,06,36,13.50
2015,05,26,06,37,13.60
2015,05,26,06,38,13.60
2015,05,26,06,39,13.60
2015,05,26,06,40,13.60
2015,05,26,06,41,13.60
2015,05,26,06,43,13.60
2015,05,26,06,44,13.60
2015,05,26,06,45,13.60
2015,05,26,06,46,13.60
2015,05,26,06,47,13.60
2015,05,26,06,48,13.60
2015,05,26,06,49,13.60
2015,05,26,06,50,13.60
2015,05,26,06,53,13.70
2015,05,26,06,54,13.70
2015,05,26,06,55,13.70
2015,05,26,06,58,13.70
2015,05,26,06,59,13.70
2015,05,26,07,02,13.70
2015,05,26,07,04,13.70
2015,05,26,07,05,13.70
2015,05,26,07,06,13.70
2015,05,26,07,07,13.70
2015,05,26,07,08,13.70
2015,05,26,07,09,13.70
2015,05,26,07,10,13.70
2015,05,26,07,11,13.70
2015,05,26,07,12,13.70
2015,05,26,07,13,13.70
2015,05,26,07,14,13.70
2015,05,26,07,15,13.70
2015,05,26,07,16,13.70
2015,05,26,07,17,13.70
2015,05,26,07,19,13.70
2015,05,26,07,20,13.70
2015,05,26,07,21,13.70
2015,05,26,07,22,13.70
2015,05,26,07,23,13.70
2015,05,26,07,25,13.80
2015,05,26,07,26,13.80
2015,05,26,07,27,13.80
2015,05,26,07,28,13.80
2015,05,26,07,29,13.80
2015,05,26,07,30,13.80
2015,05,26,07,31,13.80
2015,05,26,07,32,13.90
2015,05,26,07,33,13.90
2015,05,26,07,34,13.90
2015,05,26,07,35,13.90
2015,05,26,07,36,13.90
2015,05,26,07,37,13.90
2015,05,26,07,38,13.90
2015,05,26,07,39,14.00
2015,05,26,07,40,14.00
2015,05,26,07,41,14.00
2015,05,26,07,42,14.00
2015,05,26,07,43,14.00
2015,05,26,07,44,14.10
2015,05,26,07,45,14.10
2015,05,26,07,46,14.10
2015,05,26,07,47,14.10
2015,05,26,07,48,14.10
2015,05,26,07,49,14.10
2015,05,26,07,50,14.10
2015,05,26,07,51,14.10
2015,05,26,07,52,14.10
2015,05,26,07,53,14.10
2015,05,26,07,56,14.10
2015,05,26,07,57,14.10
2015,05,26,07,58,14.20
2015,05,26,08,00,14.20
2015,05,26,08,01,14.20
2015,05,26,08,02,14.20
2015,05,26,08,03,14.20
2015,05,26,08,04,14.20
2015,05,26,08,05,14.20
2015,05,26,08,06,14.20
2015,05,26,08,08,14.40
2015,05,26,08,09,14.40
2015,05,26,08,10,14.50
2015,05,26,08,11,14.50
2015,05,26,08,12,14.60
2015,05,26,08,13,14.60
2015,05,26,08,14,14.60
2015,05,26,08,15,14.60
2015,05,26,08,16,14.70
2015,05,26,08,17,14.70
2015,05,26,08,18,14.70
2015,05,26,08,21,14.80
2015,05,26,08,22,14.80
2015,05,26,08,23,14.90
2015,05,26,08,24,14.90
2015,05,26,08,25,14.90
2015,05,26,08,28,14.90
2015,05,26,08,29,14.90
2015,05,26,08,30,14.90
2015,05,26,08,32,14.90
2015,05,26,08,33,15.00
2015,05,26,08,34,15.00
2015,05,26,08,35,15.10
2015,05,26,08,36,15.10
2015,05,26,08,37,15.20
2015,05,26,08,38,15.20
2015,05,26,08,39,15.20
2015,05,26,08,40,15.30
2015,05,26,08,41,15.30
2015,05,26,08,42,15.40
2015,05,26,08,43,15.50
2015,05,26,08,44,15.60
2015,05,26,08,45,15.70
2015,05,26,08,46,15.70
2015,05,26,08,47,15.80
2015,05,26,08,49,15.90
2015,05,26,08,50,15.90
2015,05,26,08,53,15.90
2015,05,26,08,54,16.00
2015,05,26,08,55,16.00
2015,05,26,08,56,16.00
2015,05,26,08,57,16.00
2015,05,26,08,58,16.10
2015,05,26,08,59,16.10
2015,05,26,09,00,16.10
2015,05,26,09,01,16.10
2015,05,26,09,02,16.20
2015,05,26,09,03,16.20
2015,05,26,09,04,16.20
2015,05,26,09,05,16.20
2015,05,26,09,07,16.30
2015,05,26,09,10,16.40
2015,05,26,09,11,16.40
2015,05,26,09,12,16.40
2015,05,26,09,13,16.40
2015,05,26,09,14,16.40
2015,05,26,09,15,16.40
2015,05,26,09,16,16.40
2015,05,26,09,17,16.40
2015,05,26,09,18,16.50
2015,05,26,09,19,16.50
2015,05,26,09,20,16.60
2015,05,26,09,22,16.70
2015,05,26,09,23,16.80
2015,05,26,09,24,16.80
2015,05,26,09,26,17.00
2015,05,26,09,27,17.10
2015,05,26,09,28,17.10
2015,05,26,09,29,17.20
2015,05,26,09,30,17.30
2015,05,26,09,31,17.40
2015,05,26,09,32,17.40
2015,05,26,09,33,17.50
2015,05,26,09,34,17.60
2015,05,26,09,35,17.70
2015,05,26,09,36,17.70
2015,05,26,09,37,17.70
2015,05,26,09,38,17.70
2015,05,26,09,39,17.80
2015,05,26,09,41,17.80
2015,05,26,09,42,17.80
2015,05,26,09,43,17.80
2015,05,26,09,44,17.90
2015,05,26,09,45,17.90
2015,05,26,09,48,18.20
2015,05,26,09,49,18.20
2015,05,26,09,50,18.20
2015,05,26,09,51,18.30
2015,05,26,09,52,18.40
2015,05,26,09,53,18.40
2015,05,26,09,54,18.50
2015,05,26,09,55,18.50
2015,05,26,09,56,18.60
2015,05,26,09,57,18.60
2015,05,26,09,58,18.60
2015,05,26,09,59,18.60
2015,05,26,10,00,18.70
2015,05,26,10,01,18.70
2015,05,26,10,02,18.70
2015,05,26,10,03,18.80
2015,05,26,10,04,18.80
2015,05,26,10,05,18.80
2015,05,26,10,06,18.70
2015,05,26,10,09,18.60
2015,05,26,10,11,18.60
2015,05,26,10,12,18.70
2015,05,26,10,13,18.70
2015,05,26,10,14,18.80
2015,05,26,10,15,18.80
2015,05,26,10,16,18.90
2015,05,26,10,17,18.90
2015,05,26,10,18,18.90
2015,05,26,10,19,18.90
2015,05,26,10,20,18.90
2015,05,26,10,21,19.00
2015,05,26,10,22,19.10
2015,05,26,10,23,19.10
2015,05,26,10,26,19.30
2015,05,26,10,28,19.40
2015,05,26,10,29,19.50
2015,05,26,10,31,19.50
2015,05,26,10,32,19.50
2015,05,26,10,33,19.50
2015,05,26,10,34,19.40
2015,05,26,10,35,19.40
2015,05,26,10,36,19.50
2015,05,26,10,37,19.50
2015,05,26,10,38,19.50
2015,05,26,10,39,19.60
2015,05,26,10,40,19.60
2015,05,26,10,41,19.60
2015,05,26,10,42,19.70
2015,05,26,10,43,19.80
2015,05,26,10,44,19.80
2015,05,26,10,45,19.90
2015,05,26,10,46,19.90
2015,05,26,10,47,20.00
2015,05,26,10,48,20.10
2015,05,26,10,49,20.10
2015,05,26,10,50,20.20
2015,05,26,10,51,20.20
2015,05,26,10,53,20.20
2015,05,26,10,54,20.10
2015,05,26,10,55,20.10
2015,05,26,10,56,20.10
2015,05,26,10,57,20.10
2015,05,26,10,58,20.00
2015,05,26,10,59,20.00
2015,05,26,11,00,20.10
2015,05,26,11,02,20.20
2015,05,26,11,03,20.20
2015,05,26,11,04,20.30
2015,05,26,11,05,20.30
2015,05,26,11,06,20.40
2015,05,26,11,07,20.50
2015,05,26,11,08,20.60
2015,05,26,11,09,20.70
2015,05,26,11,10,20.80
2015,05,26,11,11,20.80
2015,05,26,11,12,20.90
2015,05,26,11,13,20.90
2015,05,26,11,14,20.90
2015,05,26,11,15,20.90
2015,05,26,11,16,20.90
2015,05,26,11,17,20.90
2015,05,26,11,18,21.00
2015,05,26,11,19,21.10
2015,05,26,11,20,21.20
2015,05,26,11,21,21.30
2015,05,26,11,22,21.40
2015,05,26,11,23,21.40
2015,05,26,11,24,21.50
2015,05,26,11,25,21.60
2015,05,26,11,26,21.60
2015,05,26,11,29,21.80
2015,05,26,11,30,21.80
2015,05,26,11,31,21.70
2015,05,26,11,32,21.80
2015,05,26,11,33,21.80
2015,05,26,11,34,21.80
2015,05,26,11,35,21.80
2015,05,26,11,36,21.80
2015,05,26,11,37,21.80
2015,05,26,11,38,21.70
2015,05,26,11,39,21.70
2015,05,26,11,40,21.60
2015,05,26,11,41,21.50
2015,05,26,11,43,21.50
2015,05,26,11,44,21.60
2015,05,26,11,45,21.60
2015,05,26,11,46,21.60
2015,05,26,11,47,21.60
2015,05,26,11,50,21.60
2015,05,26,11,51,21.50
2015,05,26,11,52,21.50
2015,05,26,11,53,21.50
2015,05,26,11,54,21.40
2015,05,26,11,55,21.40
2015,05,26,11,56,21.30
2015,05,26,11,57,21.30
2015,05,26,11,58,21.40
2015,05,26,12,00,21.50
2015,05,26,12,01,21.60
2015,05,26,12,02,21.70
2015,05,26,12,03,21.70
2015,05,26,12,04,21.70
2015,05,26,12,05,21.70
2015,05,26,12,06,21.80
2015,05,26,12,07,21.80
2015,05,26,12,09,22.10
2015,05,26,12,10,22.20
2015,05,26,12,11,22.30
2015,05,26,12,13,22.50
2015,05,26,12,14,22.60
2015,05,26,12,15,22.60
2015,05,26,12,16,22.70
2015,05,26,12,17,22.70
2015,05,26,12,18,22.80
2015,05,26,12,19,22.80
2015,05,26,12,20,22.90
2015,05,26,12,21,22.90
2015,05,26,12,22,22.90
2015,05,26,12,23,22.80
2015,05,26,12,24,22.80
2015,05,26,12,25,22.80
2015,05,26,12,26,22.70
2015,05,26,12,27,22.70
2015,05,26,12,28,22.70
2015,05,26,12,30,22.70
2015,05,26,12,31,22.70
2015,05,26,12,32,22.80
2015,05,26,12,33,22.80
2015,05,26,12,34,22.80
2015,05,26,12,35,22.80
2015,05,26,12,36,22.80
2015,05,26,12,37,22.90
2015,05,26,12,38,22.90
2015,05,26,12,39,22.90
2015,05,26,12,40,22.90
2015,05,26,12,41,22.80
2015,05,26,12,42,22.80
2015,05,26,12,43,22.80
2015,05,26,12,44,22.80
2015,05,26,12,45,22.70
2015,05,26,12,46,22.70
2015,05,26,12,47,22.70
2015,05,26,12,48,22.70
2015,05,26,12,49,22.60
2015,05,26,12,52,22.70
2015,05,26,12,53,22.80
2015,05,26,12,55,22.90
2015,05,26,12,56,23.10
2015,05,26,12,57,23.10
2015,05,26,12,58,23.20
2015,05,26,12,59,23.20
2015,05,26,13,00,23.20
2015,05,26,13,01,23.20
2015,05,26,13,02,23.10
2015,05,26,13,03,23.10
2015,05,26,13,04,23.10
2015,05,26,13,05,23.10
2015,05,26,13,06,23.10
2015,05,26,13,07,23.10
2015,05,26,13,08,23.10
2015,05,26,13,09,23.10
2015,05,26,13,10,23.10
2015,05,26,13,11,23.20
2015,05,26,13,13,23.20
2015,05,26,13,14,23.20
2015,05,26,13,15,23.30
2015,05,26,13,16,23.30
2015,05,26,13,17,23.40
2015,05,26,13,18,23.40
2015,05,26,13,19,23.40
2015,05,26,13,20,23.50
2015,05,26,13,21,23.60
2015,05,26,13,22,23.60
2015,05,26,13,23,23.60
2015,05,26,13,24,23.60
2015,05,26,13,25,23.60
2015,05,26,13,26,23.50
2015,05,26,13,27,23.50
2015,05,26,13,28,23.50
2015,05,26,13,29,23.50
2015,05,26,13,31,23.50
2015,05,26,13,32,23.60
2015,05,26,13,33,23.60
2015,05,26,13,34,23.60
2015,05,26,13,35,23.60
2015,05,26,13,36,23.60
2015,05,26,13,37,23.60
2015,05,26,13,39,23.60
2015,05,26,13,40,23.70
2015,05,26,13,41,23.70
2015,05,26,13,42,23.80
2015,05,26,13,43,23.80
2015,05,26,13,44,23.90
2015,05,26,13,45,24.00
2015,05,26,13,46,24.10
2015,05,26,13,47,24.10
2015,05,26,13,48,24.10
2015,05,26,13,49,24.10
2015,05,26,13,50,24.20
2015,05,26,13,51,24.20
2015,05,26,13,52,24.20
2015,05,26,13,53,24.20
2015,05,26,13,55,24.10
2015,05,26,13,56,24.10
2015,05,26,13,57,24.10
2015,05,26,13,58,24.10
2015,05,26,13,59,24.20
2015,05,26,14,00,24.20
2015,05,26,14,01,24.20
2015,05,26,14,02,24.30
2015,05,26,14,04,24.30
2015,05,26,14,05,24.30
2015,05,26,14,06,24.20
2015,05,26,14,07,24.20
2015,05,26,14,10,24.20
2015,05,26,14,11,24.10
2015,05,26,14,12,24.10
2015,05,26,14,13,24.20
2015,05,26,14,14,24.20
2015,05,26,14,15,24.10
2015,05,26,14,16,24.10
2015,05,26,14,17,24.20
2015,05,26,14,18,24.20
2015,05,26,14,19,24.20
2015,05,26,14,20,24.30
2015,05,26,14,21,24.30
2015,05,26,14,22,24.40
2015,05,26,14,23,24.40
2015,05,26,14,24,24.50
2015,05,26,14,25,24.50
2015,05,26,14,26,24.40
2015,05,26,14,27,24.40
2015,05,26,14,28,24.40
2015,05,26,14,29,24.40
2015,05,26,14,30,24.40
2015,05,26,14,31,24.30
2015,05,26,14,32,24.30
2015,05,26,14,33,24.20
2015,05,26,14,34,24.20
2015,05,26,14,35,24.20
2015,05,26,14,36,24.10
2015,05,26,14,37,24.10
2015,05,26,14,38,24.20
2015,05,26,14,39,24.10
2015,05,26,14,40,24.10
2015,05,26,14,41,24.10
2015,05,26,14,42,24.10
2015,05,26,14,43,24.10
2015,05,26,14,44,24.10
2015,05,26,14,45,24.10
2015,05,26,14,46,24.00
2015,05,26,14,47,24.00
2015,05,26,14,48,24.00
2015,05,26,14,49,23.90
2015,05,26,14,50,23.90
2015,05,26,14,51,23.90
2015,05,26,14,52,23.80
2015,05,26,14,53,23.80
2015,05,26,14,55,23.70
2015,05,26,14,56,23.70
2015,05,26,14,58,23.70
2015,05,26,14,59,23.70
2015,05,26,15,00,23.70
2015,05,26,15,01,23.70
2015,05,26,15,02,23.60
2015,05,26,15,03,23.60
2015,05,26,15,04,23.60
2015,05,26,15,05,23.70
2015,05,26,15,06,23.60
2015,05,26,15,07,23.60
2015,05,26,15,08,23.50
2015,05,26,15,09,23.40
2015,05,26,15,11,23.30
2015,05,26,15,12,23.20
2015,05,26,15,13,23.20
2015,05,26,15,14,23.20
2015,05,26,15,15,23.20
2015,05,26,15,16,23.20
2015,05,26,15,17,23.20
2015,05,26,15,18,23.20
2015,05,26,15,19,23.20
2015,05,26,15,20,23.30
2015,05,26,15,21,23.30
2015,05,26,15,22,23.30
2015,05,26,15,24,23.20
2015,05,26,15,25,23.20
2015,05,26,15,28,23.30
2015,05,26,15,29,23.30
2015,05,26,15,30,23.30
2015,05,26,15,32,23.20
2015,05,26,15,33,23.10
2015,05,26,15,34,23.10
2015,05,26,15,35,23.10
2015,05,26,15,36,23.00
2015,05,26,15,37,23.00
2015,05,26,15,38,23.00
2015,05,26,15,39,23.00
2015,05,26,15,40,23.00
2015,05,26,15,41,23.10
2015,05,26,15,42,23.10
2015,05,26,15,43,23.10
2015,05,26,15,44,23.10
2015,05,26,15,45,23.10
2015,05,26,15,46,23.20
2015,05,26,15,47,23.20
2015,05,26,15,48,23.30
2015,05,26,15,49,23.30
2015,05,26,15,50,23.20
2015,05,26,15,51,23.20
2015,05,26,15,52,23.20
2015,05,26,15,53,23.20
2015,05,26,15,54,23.20
2015,05,26,15,55,23.20
2015,05,26,15,56,23.20
2015,05,26,15,57,23.20
2015,05,26,15,58,23.20
2015,05,26,15,59,23.30
2015,05,26,16,00,23.20
2015,05,26,16,02,23.10
2015,05,26,16,03,23.10
2015,05,26,16,04,23.10
2015,05,26,16,05,23.10
2015,05,26,16,06,23.10
2015,05,26,16,07,23.10
2015,05,26,16,08,23.10
2015,05,26,16,09,23.10
2015,05,26,16,10,23.10
2015,05,26,16,11,23.10
2015,05,26,16,12,23.10
2015,05,26,16,13,23.10
2015,05,26,16,14,23.10
2015,05,26,16,15,23.00
2015,05,26,16,16,23.00
2015,05,26,16,18,23.00
2015,05,26,16,19,23.00
2015,05,26,16,20,23.00
2015,05,26,16,21,22.90
2015,05,26,16,22,22.90
2015,05,26,16,23,22.90
2015,05,26,16,24,22.90
2015,05,26,16,25,22.80
2015,05,26,16,26,22.80
2015,05,26,16,27,22.70
2015,05,26,16,28,22.60
2015,05,26,16,29,22.60
2015,05,26,16,30,22.50
2015,05,26,16,31,22.40
2015,05,26,16,32,22.40
2015,05,26,16,33,22.30
2015,05,26,16,34,22.30
2015,05,26,16,36,22.20
2015,05,26,16,37,22.20
2015,05,26,16,38,22.20
2015,05,26,16,39,22.20
2015,05,26,16,40,22.20
2015,05,26,16,41,22.30
2015,05,26,16,42,22.30
2015,05,26,16,43,22.30
2015,05,26,16,44,22.30
2015,05,26,16,45,22.30
2015,05,26,16,47,22.20
2015,05,26,16,48,22.20
2015,05,26,16,49,22.20
2015,05,26,16,50,22.20
2015,05,26,16,51,22.20
2015,05,26,16,52,22.20
2015,05,26,16,53,22.10
2015,05,26,16,55,22.10
2015,05,26,16,56,22.20
2015,05,26,16,57,22.20
2015,05,26,16,58,22.20
2015,05,26,16,59,22.30
2015,05,26,17,00,22.30
2015,05,26,17,03,22.30
2015,05,26,17,04,22.20
2015,05,26,17,05,22.20
2015,05,26,17,06,22.20
2015,05,26,17,07,22.10
2015,05,26,17,08,22.20
2015,05,26,17,09,22.20
2015,05,26,17,10,22.20
2015,05,26,17,11,22.20
2015,05,26,17,12,22.20
2015,05,26,17,13,22.20
2015,05,26,17,14,22.20
2015,05,26,17,15,22.20
2015,05,26,17,16,22.20
2015,05,26,17,17,22.20
2015,05,26,17,18,22.20
2015,05,26,17,19,22.20
2015,05,26,17,20,22.20
2015,05,26,17,21,22.20
2015,05,26,17,22,22.10
2015,05,26,17,23,22.10
2015,05,26,17,25,21.90
2015,05,26,17,26,21.90
2015,05,26,17,27,21.90
2015,05,26,17,28,21.90
2015,05,26,17,29,21.90
2015,05,26,17,30,21.90
2015,05,26,17,31,21.90
2015,05,26,17,32,21.80
2015,05,26,17,33,21.80
2015,05,26,17,34,21.80
2015,05,26,17,35,21.80
2015,05,26,17,36,21.80
2015,05,26,17,37,21.80
2015,05,26,17,39,21.80
2015,05,26,17,40,21.70
2015,05,26,17,41,21.70
2015,05,26,17,42,21.70
2015,05,26,17,43,21.60
2015,05,26,17,46,21.60
2015,05,26,17,47,21.60
2015,05,26,17,48,21.50
2015,05,26,17,49,21.50
2015,05,26,17,52,21.40
2015,05,26,17,53,21.40
2015,05,26,17,55,21.40
2015,05,26,17,56,21.30
2015,05,26,17,57,21.40
2015,05,26,17,58,21.40
2015,05,26,17,59,21.40
2015,05,26,18,00,21.40
2015,05,26,18,03,21.40
2015,05,26,18,04,21.40
2015,05,26,18,06,21.30
2015,05,26,18,07,21.30
2015,05,26,18,08,21.30
2015,05,26,18,09,21.30
2015,05,26,18,10,21.30
2015,05,26,18,11,21.30
2015,05,26,18,12,21.30
2015,05,26,18,13,21.30
2015,05,26,18,14,21.30
2015,05,26,18,15,21.30
2015,05,26,18,16,21.30
2015,05,26,18,17,21.30
2015,05,26,18,18,21.20
2015,05,26,18,19,21.20
2015,05,26,18,20,21.20
2015,05,26,18,21,21.20
2015,05,26,18,22,21.20
2015,05,26,18,23,21.20
2015,05,26,18,25,21.10
2015,05,26,18,28,21.10
2015,05,26,18,29,21.10
2015,05,26,18,30,21.10
2015,05,26,18,31,21.10
2015,05,26,18,32,21.10
2015,05,26,18,33,21.10
2015,05,26,18,34,21.00
2015,05,26,18,35,21.00
2015,05,26,18,36,21.00
2015,05,26,18,37,21.00
2015,05,26,18,38,20.90
2015,05,26,18,39,20.90
2015,05,26,18,40,20.90
2015,05,26,18,41,20.90
2015,05,26,18,42,20.90
2015,05,26,18,43,20.90
2015,05,26,18,44,20.90
2015,05,26,18,45,20.80
2015,05,26,18,46,20.80
2015,05,26,18,49,20.70
2015,05,26,18,50,20.70
2015,05,26,18,51,20.60
2015,05,26,18,52,20.60
2015,05,26,18,53,20.60
2015,05,26,18,54,20.60
2015,05,26,18,55,20.60
2015,05,26,18,56,20.60
2015,05,26,18,57,20.50
2015,05,26,18,58,20.40
2015,05,26,18,59,20.40
2015,05,26,19,00,20.40
2015,05,26,19,01,20.30
2015,05,26,19,02,20.30
2015,05,26,19,03,20.30
2015,05,26,19,04,20.20
2015,05,26,19,05,20.20
2015,05,26,19,06,20.20
2015,05,26,19,09,20.10
2015,05,26,19,10,20.10
2015,05,26,19,11,20.00
2015,05,26,19,12,20.00
2015,05,26,19,13,19.90
2015,05,26,19,14,19.90
2015,05,26,19,15,19.80
2015,05,26,19,16,19.80
2015,05,26,19,17,19.80
2015,05,26,19,18,19.80
2015,05,26,19,19,19.70
2015,05,26,19,20,19.70
2015,05,26,19,21,19.70
2015,05,26,19,22,19.70
2015,05,26,19,23,19.60
2015,05,26,19,24,19.70
2015,05,26,19,25,19.60
2015,05,26,19,26,19.60
2015,05,26,19,28,19.60
2015,05,26,19,30,19.60
2015,05,26,19,31,19.60
2015,05,26,19,32,19.60
2015,05,26,19,33,19.50
2015,05,26,19,34,19.50
2015,05,26,19,35,19.50
2015,05,26,19,36,19.50
2015,05,26,19,37,19.50
2015,05,26,19,39,19.40
2015,05,26,19,40,19.40
2015,05,26,19,41,19.40
2015,05,26,19,42,19.40
2015,05,26,19,43,19.30
2015,05,26,19,44,19.30
2015,05,26,19,45,19.30
2015,05,26,19,46,19.30
2015,05,26,19,47,19.30
2015,05,26,19,48,19.30
2015,05,26,19,51,19.30
2015,05,26,19,52,19.30
2015,05,26,19,53,19.30
2015,05,26,19,54,19.30
2015,05,26,19,55,19.30
2015,05,26,19,56,19.30
2015,05,26,19,57,19.30
2015,05,26,19,58,19.20
2015,05,26,19,59,19.20
2015,05,26,20,00,19.20
2015,05,26,20,01,19.10
2015,05,26,20,04,19.00
2015,05,26,20,05,19.00
2015,05,26,20,06,18.90
2015,05,26,20,07,18.90
2015,05,26,20,08,18.90
2015,05,26,20,09,18.90
2015,05,26,20,10,18.90
2015,05,26,20,13,18.80
2015,05,26,20,14,18.80
2015,05,26,20,16,18.80
2015,05,26,20,17,18.80
2015,05,26,20,18,18.80
2015,05,26,20,19,18.80
2015,05,26,20,22,18.70
2015,05,26,20,23,18.70
2015,05,26,20,24,18.70
2015,05,26,20,25,18.70
2015,05,26,20,26,18.60